Location: Barrio Pajares
(40.5500°N, 4.1667°W)
Time: 06:13:12
(UTC+00:00)

CARTOSAT-1 - Pass Details

Date: 18 April 2024
Orbit: 606 x 609 km, 97.6° (Epoch: 22 May)

Event Time Altitude Azimuth Distance (km) Brightness Sun altitude
Exits shadow 20:40:35 14° 186° (S) 1,687 5.5 -18.3°
Maximum altitude 20:44:02 52° 260° (W) 761 4.2 -18.8°
Drops below altitude 10° 20:48:14 10° 338° (NNW) 1,971 7.0 -19.5°
Sets 20:50:28 0° 343° (NNW) 2,880 7.8 -19.8°
